Weather Roundup
Issued by NWS

Home | Current Version | Previous Version | Text Only | Print | Product List | Glossary On
Versions: 1 2 3 4 5 6 7 8 9 10 11 12 13 14 15 16 17 18 19 20 21 22 23 24 25 26 27 28 29 30 31 32 33 34 35 36 37 38 39 40 41 42 43 44 45 46 47 48 49 50
000
NZUS93 KARX 160759
HRRWXR

CURRENT HOURLY OBSERVATIONS ACROSS
MUCH OF THE UPPER MISSISSIPPI VALLEY
NATIONAL WEATHER SERVICE LA CROSSE WI
300 AM CDT TUE SEP 16 2014


...SOUTHEAST MINNESOTA...


CITY           SKY/WX    TMP DP  RH WIND       PRES   REMARKS
ROCHESTER      CLEAR     41  36  82 SW7       30.23S
ROCHESTER/MAYO FAIR      45  38  78 CALM      30.23F
WINONA         CLEAR     41  41 100 CALM      30.23S
AUSTIN         CLEAR     39  37  93 CALM      30.23F FOG
ALBERT LEA     CLEAR     41  41 100 CALM      30.24S
DODGE CENTER   CLEAR     39  37  93 SW5       30.23S
PRESTON        CLEAR     41  41  99 CALM      30.24R
OWATONNA       CLEAR     39  37  93 CALM      30.23S
FARIBAULT      CLEAR     39  34  81 CALM      30.23S
$$

...ELSEWHERE IN MINNESOTA...


CITY           SKY/WX    TMP DP  RH WIND       PRES   REMARKS
MINNEAPOLIS    CLEAR     45  41  86 S3        30.21S
INTNL FALLS    CLEAR     39  37  92 SW7       30.02F WCI  34
DULUTH         CLEAR     46  36  68 W14       30.11F
RED WING       CLEAR     37  37 100 CALM      30.21F
REDWOOD FALLS  CLEAR     43  37  79 SW7       30.22S
MANKATO        CLEAR     43  36  75 S3        30.22F
WORTHINGTON    CLEAR     41  37  87 SW5       30.25S
FAIRMONT       CLEAR     43  36  75 SW3       30.24S
$$

...SOUTHWEST WISCONSIN...


CITY           SKY/WX    TMP DP  RH WIND       PRES   REMARKS
LA CROSSE      CLEAR     45  42  89 SE7       30.22S
PRAIRIE DU CHI FOG       43  41  95 CALM      30.24S VSB 1/2
BOSCOBEL       FOG       45  44  97 S3        30.25R VSB 1/4
LONE ROCK      FOG       44  40  85 W3        30.24R VSB 1/2
PLATTEVILLE      N/A     42  41  96 CALM      30.24S
FORT MC COY    PTCLDY    33  33 100 CALM      30.23S
CAMP DOUGLAS   CLEAR     36  36 100 CALM      30.21F
VIROQUA        FAIR      42  42 100 CALM      30.22S
WIS DELLS      CLEAR     40  39  95 CALM      30.21S
$$

...ELSEWHERE IN WISCONSIN...


CITY           SKY/WX    TMP DP  RH WIND       PRES   REMARKS
MILWAUKEE      CLEAR     49  44  83 W8        30.18R
MADISON        CLEAR     40  38  93 CALM      30.22R FOG
GREEN BAY      CLEAR     40  39  97 W3        30.18S
EAU CLAIRE     NOT AVBL
BLACK RVR FLS  FAIR      33  33 100 CALM      30.21S
MEDFORD        CLEAR     36  35  98 CALM      30.18S
WAUSAU         CLEAR     40  38  93 NW3       30.17S
WIS RAPIDS     CLEAR     37  36  96 CALM      30.21S
MARSHFIELD     CLEAR     38  36  92 W3        30.19S
RICE LAKE      CLEAR     37  36  96 CALM      30.21R
$$

...NORTHEAST IOWA...


CITY           SKY/WX    TMP DP  RH WIND       PRES   REMARKS
WATERLOO       FOG       38  38 100 CALM      30.24S VSB 1/2
DUBUQUE        CLEAR     45  42  89 N6        30.23S
DECORAH        PTCLDY    39  39 100 SW3       30.23S
MASON CITY     CLEAR     37  36  96 SW3       30.26S FOG
CHARLES CITY   CLEAR     39  39 100 CALM      30.25S
OELWEIN        CLEAR     41  41 100 CALM      30.25S
$$

...ELSEWHERE IN IOWA...


CITY           SKY/WX    TMP DP  RH WIND       PRES   REMARKS
DES MOINES     CLEAR     46  43  89 CALM      30.26R
IOWA CITY      CLEAR     45  44  97 CALM      30.25
FORT DODGE     MOCLDY    37  36  93 CALM      30.26S VSB 3/4
MARSHALLTOWN   CLEAR     39  38  96 NW5       30.24S FOG
CEDAR RAPIDS   CLEAR     43  42  97 NW7       30.23
$$

...NORTHERN ILLINOIS...


CITY           SKY/WX    TMP DP  RH WIND       PRES   REMARKS
CHICAGO-OHARE  CLEAR     49  46  90 W3        30.18S
DUPAGE         CLEAR     45  43  93 W3        30.19S
CHICAGO-MIDWAY PTCLDY    51  47  86 NW6       30.19R
MOLINE         CLEAR     44  42  93 CALM      30.23S FOG
ROCKFORD       CLEAR     44  42  93 N3        30.22S
STERLING       CLEAR     43  39  87 CALM      30.22R
PEORIA         CLEAR     51  47  86 N3        30.22S
$$

NOTE: "FAIR" INDICATES FEW OR NO CLOUDS BELOW 12,000 FEET WITH NO
SIGNIFICANT WEATHER AND/OR OBSTRUCTIONS TO VISIBILITY. WIND
SPEEDS ARE IN MILES-PER-HOUR.



USA.gov is the U.S. government's official web portal to all federal, state and local government web resources and services.